When you browse on this site, cookies collect data to enhance your experience and personalize the content and advertising you see.
Visit our Privacy Policy to learn more. By continuing to use the site, you agree to this use of cookies and data.
  • In Hungary
  • List of Countries
  • For 7 days
  • Water Temperature
  • Satellite Maps
  • Weather Map
  • News
  • Weather Widgets
  • user-avatar
    Login

    Hourly Weather Mulhule

    Today, 18 November, Sunday

    Time Temperature Precipitation Wind Pressure Humidity
    00:00 +29°C° 0 mm 5 mps 761 mmHg 68%
    01:00 +29°C° 0 mm 5 mps 761 mmHg 70%
    02:00 +28°C° 0 mm 5 mps 760 mmHg 72%
    03:00 +28°C° 0 mm 5 mps 760 mmHg 74%
    04:00 +28°C° 0 mm 4 mps 760 mmHg 75%
    05:00 +27°C° 0 mm 4 mps 760 mmHg 76%
    06:00 +27°C° 0 mm 4 mps 761 mmHg 77%
    07:00 +29°C° 0 mm 5 mps 761 mmHg 68%
    08:00 +30°C° 0 mm 5 mps 761 mmHg 60%
    09:00 +33°C° 0 mm 6 mps 761 mmHg 51%
    10:00 +34°C° 0 mm 6 mps 761 mmHg 47%
    11:00 +35°C° 0 mm 6 mps 760 mmHg 43%
    12:00 +36°C° 0 mm 7 mps 760 mmHg 39%
    13:00 +36°C° 0 mm 7 mps 759 mmHg 39%
    14:00 +36°C° 0 mm 7 mps 759 mmHg 39%
    15:00 +35°C° 0 mm 7 mps 758 mmHg 42%
    16:00 +34°C° 0 mm 7 mps 759 mmHg 45%
    17:00 +33°C° 0 mm 6 mps 759 mmHg 49%
    18:00 +33°C° 0 mm 6 mps 759 mmHg 52%
    19:00 +32°C° 0 mm 6 mps 759 mmHg 54%
    20:00 +30°C° 0 mm 6 mps 759 mmHg 57%
    21:00 +30°C° 0 mm 6 mps 760 mmHg 60%
    22:00 +30°C° 0 mm 6 mps 760 mmHg 61%
    23:00 +29°C° 0 mm 6 mps 760 mmHg 62%

    Tomorrow, 19 November, Monday

    Time Temperature Precipitation Wind Pressure Humidity
    00:00 +29°C° 0 mm 6 mps 760 mmHg 63%
    01:00 +29°C° 0 mm 6 mps 760 mmHg 64%
    02:00 +29°C° 0 mm 6 mps 760 mmHg 66%
    03:00 +28°C° 0 mm 6 mps 760 mmHg 67%
    04:00 +28°C° 0 mm 6 mps 760 mmHg 69%
    05:00 +28°C° 0 mm 6 mps 760 mmHg 70%
    06:00 +28°C° 0 mm 6 mps 760 mmHg 71%
    07:00 +29°C° 0 mm 6 mps 760 mmHg 65%
    08:00 +30°C° 0 mm 7 mps 761 mmHg 58%
    09:00 +33°C° 0 mm 7 mps 761 mmHg 52%
    10:00 +34°C° 0 mm 7 mps 761 mmHg 49%
    11:00 +35°C° 0 mm 8 mps 760 mmHg 45%
    12:00 +37°C° 0 mm 8 mps 760 mmHg 42%
    13:00 +37°C° 0 mm 8 mps 760 mmHg 41%
    14:00 +37°C° 0 mm 8 mps 759 mmHg 41%
    15:00 +37°C° 0 mm 8 mps 758 mmHg 41%
    16:00 +35°C° 0 mm 7 mps 759 mmHg 44%
    17:00 +34°C° 0 mm 7 mps 759 mmHg 47%
    18:00 +33°C° 0 mm 7 mps 759 mmHg 50%
    19:00 +32°C° 0 mm 7 mps 759 mmHg 52%
    20:00 +32°C° 0 mm 7 mps 760 mmHg 54%
    21:00 +30°C° 0 mm 7 mps 760 mmHg 56%
    22:00 +30°C° 0 mm 7 mps 760 mmHg 57%
    23:00 +30°C° 0 mm 7 mps 760 mmHg 58%

    Day after tomorrow, 20 November, Tuesday

    Time Temperature Precipitation Wind Pressure Humidity
    00:00 +29°C° 0 mm 7 mps 760 mmHg 60%
    01:00 +29°C° 0 mm 6 mps 760 mmHg 61%
    02:00 +29°C° 0 mm 6 mps 760 mmHg 62%
    03:00 +28°C° 0 mm 6 mps 759 mmHg 64%
    04:00 +28°C° 0 mm 6 mps 760 mmHg 65%
    05:00 +28°C° 0 mm 6 mps 760 mmHg 65%
    06:00 +28°C° 0 mm 6 mps 760 mmHg 66%
    07:00 +29°C° 0 mm 6 mps 760 mmHg 59%
    08:00 +32°C° 0 mm 7 mps 761 mmHg 51%
    09:00 +33°C° 0 mm 7 mps 761 mmHg 44%
    10:00 +34°C° 0 mm 8 mps 761 mmHg 40%
    11:00 +35°C° 0 mm 8 mps 761 mmHg 37%
    12:00 +37°C° 0 mm 8 mps 760 mmHg 33%
    13:00 +37°C° 0 mm 8 mps 760 mmHg 33%
    14:00 +37°C° 0 mm 8 mps 759 mmHg 34%
    15:00 +37°C° 0 mm 8 mps 758 mmHg 34%
    16:00 +35°C° 0 mm 7 mps 758 mmHg 38%
    17:00 +34°C° 0 mm 7 mps 759 mmHg 41%
    18:00 +33°C° 0 mm 6 mps 759 mmHg 45%
    19:00 +33°C° 0 mm 6 mps 759 mmHg 47%
    20:00 +32°C° 0 mm 6 mps 760 mmHg 48%
    21:00 +32°C° 0 mm 6 mps 761 mmHg 50%
    22:00 +30°C° 0 mm 5 mps 760 mmHg 51%
    23:00 +30°C° 0 mm 5 mps 760 mmHg 52%

    21 November, Wednesday

    Time Temperature Precipitation Wind Pressure Humidity
    00:00 +30°C° 0 mm 5 mps 760 mmHg 54%
    01:00 +29°C° 0 mm 5 mps 760 mmHg 55%
    02:00 +29°C° 0 mm 5 mps 760 mmHg 56%
    03:00 +29°C° 0 mm 5 mps 759 mmHg 57%
    04:00 +29°C° 0 mm 5 mps 759 mmHg 58%
    05:00 +28°C° 0 mm 5 mps 760 mmHg 58%
    06:00 +28°C° 0 mm 5 mps 760 mmHg 58%
    07:00 +30°C° 0 mm 6 mps 760 mmHg 53%
    08:00 +32°C° 0 mm 6 mps 761 mmHg 47%
    09:00 +33°C° 0 mm 7 mps 761 mmHg 42%
    10:00 +34°C° 0 mm 7 mps 761 mmHg 39%
    11:00 +35°C° 0 mm 8 mps 760 mmHg 36%
    12:00 +37°C° 0 mm 8 mps 760 mmHg 33%
    13:00 +37°C° 0 mm 8 mps 759 mmHg 32%
    14:00 +37°C° 0 mm 8 mps 759 mmHg 32%
    15:00 +37°C° 0 mm 8 mps 758 mmHg 32%
    16:00 +35°C° 0 mm 7 mps 758 mmHg 34%
    17:00 +34°C° 0 mm 7 mps 758 mmHg 37%
    18:00 +33°C° 0 mm 7 mps 759 mmHg 39%
    19:00 +32°C° 0 mm 7 mps 759 mmHg 42%
    20:00 +32°C° 0 mm 7 mps 760 mmHg 44%
    21:00 +32°C° 0 mm 6 mps 761 mmHg 46%
    22:00 +30°C° 0 mm 6 mps 760 mmHg 49%
    23:00 +30°C° 0 mm 6 mps 760 mmHg 51%

    22 November, Thursday

    Time Temperature Precipitation Wind Pressure Humidity
    00:00 +29°C° 0 mm 6 mps 760 mmHg 54%
    01:00 +29°C° 0 mm 6 mps 760 mmHg 56%
    02:00 +29°C° 0 mm 6 mps 759 mmHg 58%
    03:00 +28°C° 0 mm 6 mps 759 mmHg 60%
    04:00 +28°C° 0 mm 6 mps 759 mmHg 62%
    05:00 +28°C° 0 mm 6 mps 760 mmHg 63%
    06:00 +28°C° 0 mm 6 mps 760 mmHg 65%
    07:00 +29°C° 0 mm 7 mps 761 mmHg 59%
    08:00 +30°C° 0 mm 7 mps 761 mmHg 52%
    09:00 +33°C° 0 mm 8 mps 762 mmHg 46%
    10:00 +34°C° 0 mm 8 mps 761 mmHg 43%
    11:00 +35°C° 0 mm 9 mps 760 mmHg 39%
    12:00 +37°C° 0 mm 9 mps 760 mmHg 36%
    13:00 +37°C° 0 mm 9 mps 759 mmHg 35%
    14:00 +35°C° 0 mm 9 mps 758 mmHg 34%
    15:00 +35°C° 0 mm 9 mps 757 mmHg 34%
    16:00 +34°C° 0 mm 9 mps 758 mmHg 38%
    17:00 +33°C° 0 mm 8 mps 758 mmHg 42%
    18:00 +32°C° 0 mm 8 mps 759 mmHg 46%
    19:00 +32°C° 0 mm 8 mps 759 mmHg 50%
    20:00 +31°C° 0 mm 8 mps 760 mmHg 54%
    21:00 +31°C° 0 mm 8 mps 761 mmHg 57%
    22:00 +29°C° 0 mm 8 mps 761 mmHg 61%
    23:00 +29°C° 0 mm 8 mps 760 mmHg 64%

    23 November, Friday

    Time Temperature Precipitation Wind Pressure Humidity
    00:00 +29°C° 0 mm 8 mps 760 mmHg 67%
    01:00 +28°C° 0 mm 8 mps 760 mmHg 69%
    02:00 +28°C° 0 mm 8 mps 759 mmHg 71%
    03:00 +28°C° 0 mm 8 mps 759 mmHg 73%
    04:00 +28°C° 0 mm 8 mps 759 mmHg 74%
    05:00 +28°C° 0 mm 8 mps 760 mmHg 74%
    06:00 +27°C° 0 mm 8 mps 760 mmHg 75%
    07:00 +29°C° 0 mm 9 mps 761 mmHg 68%
    08:00 +31°C° 0 mm 10 mps 761 mmHg 60%
    09:00 +32°C° 0 mm 10 mps 761 mmHg 53%
    10:00 +33°C° 0 mm 10 mps 761 mmHg 49%
    11:00 +34°C° 0 mm 10 mps 760 mmHg 46%
    12:00 +36°C° 0 mm 10 mps 760 mmHg 42%
    13:00 +36°C° 0 mm 10 mps 759 mmHg 42%
    14:00 +36°C° 0 mm 10 mps 758 mmHg 43%
    15:00 +36°C° 0 mm 10 mps 758 mmHg 43%
    16:00 +34°C° 0 mm 10 mps 758 mmHg 48%
    17:00 +33°C° 0 mm 9 mps 759 mmHg 53%
    18:00 +31°C° 0 mm 9 mps 759 mmHg 58%
    19:00 +31°C° 0 mm 9 mps 759 mmHg 61%
    20:00 +31°C° 0 mm 9 mps 760 mmHg 64%
    21:00 +29°C° 0 mm 9 mps 760 mmHg 67%
    22:00 +29°C° 0 mm 9 mps 760 mmHg 69%
    23:00 +29°C° 0 mm 9 mps 760 mmHg 71%
    Show more